Regional Weather Roundup
Issued by NWS

Home | Current Version | Previous Version | Text Only | Print | Product List | Glossary Off
Versions: 1 2 3 4 5 6 7 8 9 10 11 12 13 14 15 16 17 18 19 20 21 22 23 24 25 26 27 28 29 30 31 32 33 34 35 36 37 38 39 40 41 42 43 44 45 46 47 48 49 50

000
ASUS43 KLMK 270310
RWRKY
KENTUCKY REGIONAL WEATHER ROUNDUP
NATIONAL WEATHER SERVICE LOUISVILLE KY
1100 PM EDT FRI AUG 26 2016

NOTE "FAIR" INDICATES FEW OR NO CLOUDS BELOW 12,000 FEET
WITH NO SIGNIFICANT WEATHER AND/OR OBSTRUCTIONS TO VISIBILITY.

KYZ001>023-026-027-061>063-070>075-270400-
WESTERN AND SOUTH CENTRAL KENTUCKY

CITY           SKY/WX    TMP DP  RH WIND       PRES   REMARKS
PADUCAH        TSTM      72  69  90 S8G17     30.13R FOG
HENDERSON      CLOUDY    75  70  83 CALM      30.07R
OWENSBORO      CLOUDY    81  75  81 NE5       30.08S
HOPKINSVILLE   CLOUDY    76  70  82 W14       30.11R
BOWLING GREEN  CLOUDY    81  75  82 E3        30.08R
GLASGOW        MOCLDY    78  74  87 NE3       30.09S
$$

KYZ024-025-028>034-038-045-046-053-270400-
NORTH CENTRAL KENTUCKY

CITY           SKY/WX    TMP DP  RH WIND       PRES   REMARKS
LOUISVILLE/SDF MOCLDY    85  65  51 CALM      30.09R
LOUISVILLE/LOU CLOUDY    82  69  64 CALM      30.10R
FORT KNOX      CLEAR     74  72  92 NW2       30.09R
$$

KYZ035>037-039>044-047>052-055>060-089>105-270400-
NORTHEAST KENTUCKY

CITY           SKY/WX    TMP DP  RH WIND       PRES   REMARKS
LEXINGTON      CLEAR     77  70  79 E3        30.13S
COVINGTON      PTCLDY    76  73  91 N5        30.13S
FRANKFORT      CLOUDY    77  71  82 CALM      30.10F
$$

KYZ054-064>069-076>088-106>120-270400-
SOUTHEAST KENTUCKY

CITY           SKY/WX    TMP DP  RH WIND       PRES   REMARKS
JACKSON        CLEAR     79  68  69 CALM      30.16S
LONDON         CLEAR     76  69  79 CALM      30.14S
SOMERSET       CLEAR     73  72  94 CALM      30.12F
MIDDLESBORO    CLEAR     74  73  93 CALM      30.15S
MONTICELLO     CLEAR    N/A N/A N/A VRB7      30.13S
$$





USA.gov is the U.S. government's official web portal to all federal, state and local government web resources and services.